Wind_Speed
20 21 21 21 21 21 23 27 28 30 30 29 26 24 22 21 20 19 11 7 10 15 34 33 15 15 20 15 5 17 13 5 0 4 4 5 4 7 7 12 9 10 4 5 3 3 2 4 11 6 3 15 21 24
21 21 21 22 23 24 26 29 31 32 31 28 25 23 21 20 19 20 19 12 15 17 28 30 36 36 29 25 18 8 9 10 7 4 4 4 3 3 6 6 5 1 4 7 6 6 8 25 19 15 12 5 19 25
22 22 21 23 24 27 29 30 31 31 29 27 25 22 21 19 19 20 24 21 13 12 27 20 20 14 24 29 24 10 5 5 8 12 2 3 3 3 3 4 7 6 8 4 6 5 8 23 15 10 7 3 12 22
24 24 24 23 25 27 29 31 30 31 29 28 25 23 21 20 19 21 24 21 13 8 7 10 12 17 12 12 16 24 26 24 15 12 3 2 2 6 4 2 3 1 7 3 4 5 5 4 10 16 15 20 23 21
23 24 24 25 25 27 30 30 30 31 30 28 25 23 21 20 20 21 23 15 11 7 6 17 29 6 9 15 17 18 20 19 15 5 2 3 5 5 4 3 4 6 3 3 3 8 1 5 18 15 20 20 18 18
23 24 25 24 25 28 30 28 29 30 28 27 25 23 21 19 19 18 4 7 5 14 6 4 11 15 8 19 13 13 13 16 15 3 4 6 15 3 1 2 4 17 16 18 5 13 17 14 13 11 19 19 23 25
22 23 24 24 26 28 28 28 29 30 29 28 26 24 20 16 16 10 5 6 4 5 4 5 5 7 11 8 9 12 12 12 13 13 6 8 11 4 2 3 4 10 11 11 11 11 7 4 2 4 7 15 21 19
22 22 23 25 27 27 27 29 29 29 29 29 26 20 15 12 10 5 6 10 6 6 6 4 5 5 13 8 8 16 13 14 10 9 7 4 6 3 2 0 2 5 3 7 8 6 7 7 0 6 11 14 19 30
23 23 24 25 27 28 26 28 29 28 29 25 18 14 7 1 1 4 5 4 8 9 5 4 4 3 3 16 8 11 10 3 8 4 4 5 4 4 6 11 10 7 0 1 4 6 7 10 11 7 7 23 32 31
24 25 24 25 25 26 25 28 27 27 27 19 9 5 1 2 4 3 2 3 5 6 7 5 7 5 8 6 3 8 6 3 3 5 11 2 3 9 9 19 19 9 8 2 4 6 7 10 15 7 2 17 26 27
23 23 23 25 23 24 24 25 24 26 23 17 10 4 9 11 1 4 5 7 9 4 8 8 18 7 8 2 1 13 3 1 2 4 6 4 3 3 16 17 12 8 4 3 4 2 11 11 14 14 17 14 16 16
20 21 22 23 24 23 23 22 20 21 18 18 13 13 7 3 4 4 3 4 5 4 8 5 10 14 6 3 3 4 3 5 3 8 2 2 1 16 20 16 10 9 11 15 15 16 16 18 15 12 12 9 4 3
22 23 22 22 22 21 20 16 17 20 19 7 3 3 2 3 2 4 4 3 2 7 7 8 3 3 7 3 4 4 2 4 7 2 1 2 11 13 13 12 10 9 13 16 16 15 16 15 13 14 12 7 4 5
22 23 21 21 19 18 13 16 18 16 6 3 3 3 4 3 5 3 4 4 7 10 15 6 3 2 4 1 2 1 3 3 3 3 1 4 12 13 13 10 9 10 12 12 11 10 9 9 10 9 8 4 2 3
21 20 20 17 14 13 16 18 15 7 3 4 4 4 6 4 6 17 17 11 17 20 13 3 3 4 3 2 2 0 1 4 2 2 3 15 14 14 16 15 13 12 12 11 7 5 4 3 4 3 3 4 4 1
18 20 17 14 15 17 17 17 5 4 4 4 6 5 7 5 4 8 9 9 14 22 8 4 2 3 2 3 3 4 3 2 2 2 10 12 13 13 14 11 10 9 7 6 4 3 3 5 7 7 9 9 8 9
17 16 14 16 19 20 12 7 3 5 5 4 6 9 13 12 10 8 8 5 16 14 3 2 3 3 4 3 3 4 4 1 6 11 9 13 11 10 9 7 7 6 5 4 2 2 5 5 5 9 10 12 12 9
18 11 14 17 21 16 4 5 4 5 8 11 8 10 9 10 12 12 8 10 8 10 6 2 3 2 3 4 2 1 3 10 10 10 7 7 8 9 10 9 7 6 3 1 2 1 3 3 5 4 7 7 9 7
14 12 14 14 9 4 3 3 5 5 7 11 12 14 13 12 11 12 13 12 12 11 7 4 4 3 1 2 4 5 5 3 7 8 8 7 8 9 9 9 8 6 4 2 1 1 1 2 4 5 6 6 8 8
10 10 7 4 4 3 3 4 5 6 6 7 14 14 12 10 12 12 12 11 11 7 5 3 3 1 6 4 6 8 1 3 3 6 7 5 7 10 8 10 12 9 8 6 3 3 2 2 2 2 2 1 3 4
5 2 3 4 4 6 4 4 5 7 9 8 14 16 8 11 12 12 10 10 9 6 3 7 12 19 16 8 5 2 3 3 5 6 3 6 7 9 10 10 8 12 14 12 11 7 5 1 4 4 4 4 4 7
6 5 4 5 3 3 5 6 6 10 7 11 16 10 9 9 13 12 14 12 11 15 15 14 17 18 12 9 6 5 4 7 10 7 5 6 8 9 12 14 15 15 14 19 13 9 6 4 5 6 5 6 5 2
4 3 3 3 3 3 7 5 5 5 3 3 5 3 3 3 3 2 2 5 7 13 11 12 12 13 13 15 14 10 6 6 7 8 12 13 10 8 8 12 10 10 7 10 7 9 9 9 6 10 9 5 5 4
4 2 3 3 5 4 5 4 5 4 4 3 3 3 3 3 4 4 3 4 3 5 4 3 3 6 7 8 9 10 11 12 14 13 16 10 11 11 11 14 17 12 10 8 4 13 16 8 8 11 11 8 4 8
2 3 4 4 5 4 3 3 3 3 3 2 3 4 2 4 2 2 2 3 2 3 1 2 5 7 10 13 12 11 14 15 16 18 15 17 16 14 10 10 16 17 6 10 10 11 9 11 14 12 13 14 12 8
3 4 6 4 3 3 2 3 1 3 4 3 2 4 2 2 3 1 1 2 3 5 8 11 13 13 14 13 14 13 13 9 8 12 13 13 16 16 16 10 8 18 12 10 10 12 13 14 13 9 17 13 11 11
3 4 7 6 4 4 4 6 8 5 4 2 2 2 2 2 2 0 1 6 9 14 15 17 15 15 15 14 13 14 9 8 10 12 11 9 17 18 18 11 16 16 9 7 8 14 23 17 19 13 17 13 14 17
5 4 3 3 3 4 3 3 3 3 3 3 3 2 2 2 2 4 16 23 20 18 13 15 15 10 12 14 11 8 7 8 9 11 10 15 16 14 16 17 15 17 14 11 2 5 13 17 13 15 10 14 6 5
4 6 7 10 9 5 4 3 4 6 4 5 3 5 5 13 22 24 25 21 18 19 19 16 11 8 7 7 8 6 8 8 8 9 11 11 12 14 14 13 16 20 20 11 9 11 11 10 6 15 19 15 14 11
4 4 3 6 4 4 9 12 9 10 9 11 13 16 20 22 22 22 12 11 18 19 10 8 5 5 8 7 6 5 7 8 9 15 14 12 8 14 9 13 14 14 20 20 14 8 10 16 17 13 11 13 12 13
4 3 3 5 4 8 13 15 16 16 17 18 18 20 21 19 14 7 13 21 9 6 7 5 4 3 7 5 3 4 6 4 12 9 5 13 12 8 9 7 13 16 26 19 17 20 16 22 25 15 10 9 8 5
4 5 2 2 5 11 13 6 7 9 11 11 13 12 11 3 1 4 14 20 10 8 3 8 13 8 4 6 11 6 10 9 5 6 10 7 15 12 9 8 10 12 15 15 18 21 19 15 20 22 23 13 14 14
4 4 6 4 4 4 3 4 3 6 3 3 1 5 3 3 3 2 9 20 19 7 11 14 10 6 9 11 12 5 8 10 11 8 8 4 6 5 6 4 4 7 10 10 8 14 25 22 9 11 15 20 20 24
Wind_Direction
337 335 334 335 336 338 339 338 336 336 334 333 330 332 331 332 330 331 340 19 319 290 282 275 283 305 308 292 294 331 331 357 99 160 194 248 260 257 234 237 227 234 214 228 195 154 159 39 41 79 144 48 104 105
332 332 331 331 331 332 332 333 331 331 331 332 329 327 325 327 326 323 321 309 282 274 262 278 275 269 254 248 288 304 297 306 351 27 14 329 301 329 272 259 225 68 237 190 140 168 130 91 99 86 91 60 127 122
323 325 325 326 326 327 328 329 330 330 330 329 327 324 318 321 320 315 310 320 335 289 300 273 265 256 243 243 238 253 274 0 11 8 301 271 290 2 337 71 356 13 19 88 80 13 100 116 117 126 119 172 157 137
314 317 320 321 322 326 327 327 330 330 329 327 324 318 314 312 315 309 307 311 264 281 278 292 345 283 262 231 215 227 244 276 301 331 300 270 306 360 343 352 18 115 30 64 91 52 83 44 163 147 127 118 123 129
317 315 316 318 322 327 327 327 328 330 327 326 326 318 308 306 312 310 310 303 245 213 303 296 314 295 227 209 210 223 230 245 262 295 274 286 304 19 337 13 18 26 65 56 318 342 54 153 135 142 149 142 137 136
314 315 316 318 321 325 327 326 328 332 328 328 326 317 306 303 309 321 326 348 23 200 291 292 300 281 268 190 191 206 225 231 231 242 256 245 255 279 76 336 336 1 357 15 42 75 77 87 122 142 145 151 161 159
316 316 316 316 320 324 326 325 324 329 330 329 319 310 302 298 296 277 244 170 141 168 268 289 277 259 205 181 204 208 210 215 212 233 238 266 293 286 155 173 297 328 339 39 32 44 70 62 38 67 211 212 192 178
314 315 316 314 319 324 326 326 325 330 332 328 322 311 297 295 291 289 253 203 200 217 258 274 267 252 180 184 216 204 177 196 211 233 237 204 283 248 211 173 327 310 17 35 21 11 354 8 95 287 310 220 184 176
311 314 315 316 318 322 324 327 327 333 338 334 330 319 300 137 205 237 228 242 226 213 286 273 300 264 232 231 242 184 188 173 209 199 227 201 226 218 187 222 228 239 302 34 20 10 360 344 316 306 286 176 169 159
308 311 313 315 318 320 322 328 330 334 342 342 358 345 243 338 269 292 239 194 193 216 233 253 266 270 315 299 222 192 186 227 170 213 212 202 258 264 254 231 205 139 107 105 115 53 343 341 347 326 116 147 148 141
301 308 312 312 320 321 319 327 332 335 346 358 345 316 331 325 258 221 228 203 186 221 217 241 233 250 286 252 332 13 303 343 202 250 173 180 167 3 107 99 102 104 89 19 341 47 84 79 98 106 103 122 147 166
299 308 313 311 315 316 317 323 328 336 336 318 304 296 301 305 256 255 233 215 196 233 198 221 238 207 251 294 111 3 10 338 291 331 69 99 40 78 97 93 86 67 74 73 91 93 85 82 73 90 106 114 84 280
300 307 306 309 310 312 315 321 326 329 328 324 293 288 259 245 285 238 219 214 228 338 342 327 316 323 196 268 124 134 184 255 311 4 192 129 109 87 89 97 90 82 93 82 81 81 80 78 90 86 87 77 70 69
296 302 310 311 309 310 313 325 327 331 331 282 255 269 226 206 246 252 338 326 313 312 323 315 305 326 327 254 11 70 174 166 217 223 144 135 104 96 93 103 121 100 104 98 82 74 79 80 75 74 63 53 333 262
298 310 312 311 310 317 322 323 321 316 274 269 275 253 223 301 269 295 312 336 349 315 299 320 25 31 311 251 213 88 250 248 227 67 99 140 127 116 108 104 106 103 104 102 104 96 66 19 1 353 292 250 234 227
305 307 310 309 316 319 326 324 307 211 251 243 242 266 306 299 327 352 2 329 338 335 329 36 52 88 271 244 214 195 223 49 40 111 110 129 126 121 112 112 113 109 108 97 83 64 36 333 345 345 322 315 286 264
300 303 308 309 309 319 316 306 238 222 240 239 242 255 275 285 299 340 313 354 310 325 2 46 122 262 295 255 174 22 43 339 128 111 129 125 130 138 132 139 132 123 114 111 88 8 347 26 348 312 334 330 316 278
291 298 292 299 304 320 305 224 249 243 235 240 245 269 274 271 286 296 319 348 343 332 351 59 52 324 303 347 50 62 28 63 130 151 144 151 173 161 162 172 152 145 138 85 26 10 309 322 347 342 346 16 9 353
302 298 287 290 302 312 269 235 234 264 257 267 259 267 275 281 277 281 285 290 287 287 302 278 206 197 125 357 44 32 21 25 75 108 135 157 174 185 181 168 172 184 196 226 152 87 322 356 39 41 42 18 48 52
302 305 297 289 247 264 263 248 226 260 277 296 307 292 278 275 279 274 276 274 288 311 211 229 251 303 134 226 227 204 202 353 1 124 156 161 202 198 197 189 195 206 213 213 196 202 90 56 91 106 142 305 102 55
310 313 297 274 262 230 269 289 262 260 286 284 283 291 279 277 262 261 264 256 245 229 250 235 270 276 308 310 308 318 187 238 292 1 185 205 206 198 193 195 217 220 222 214 211 195 175 234 140 105 107 94 75 61
272 291 287 255 264 248 260 245 256 289 287 270 289 278 266 254 261 249 258 232 237 238 241 245 256 266 290 319 346 332 291 237 240 266 235 240 198 219 233 213 223 240 270 217 196 192 194 178 158 164 161 185 191 198
273 273 257 245 250 263 265 241 246 245 258 266 272 255 225 235 246 225 258 237 238 231 235 243 251 248 264 274 278 285 272 262 241 256 253 244 224 246 229 211 225 238 263 205 215 205 193 183 202 183 175 200 208 211
266 264 244 226 208 261 253 232 232 261 257 250 267 281 300 314 266 216 246 196 198 216 215 212 242 273 276 271 264 271 265 260 254 250 246 249 239 234 244 246 221 220 239 250 262 202 198 201 178 196 201 205 224 213
260 244 220 250 233 237 253 242 220 245 260 299 278 272 341 307 275 258 300 45 126 136 115 339 309 294 288 286 289 289 287 281 268 248 238 239 241 244 247 254 246 246 232 239 202 194 188 209 207 210 217 225 219 216
234 223 197 242 213 233 279 284 267 284 289 298 305 320 276 252 260 344 80 38 12 326 305 302 295 281 275 276 276 274 278 282 248 228 223 229 227 241 229 249 232 242 241 214 216 259 254 216 218 211 208 229 229 227
246 245 224 241 251 270 289 299 299 263 271 264 297 292 274 283 275 245 271 285 318 306 299 298 289 272 269 272 262 268 240 264 270 242 226 224 221 233 239 252 222 221 212 240 273 232 228 220 226 251 228 226 242 238
250 289 285 304 298 281 275 280 280 271 254 276 302 287 293 294 275 312 313 312 306 304 285 311 306 275 264 276 285 272 271 270 285 240 231 241 227 245 228 247 229 227 248 249 253 92 217 224 254 267 236 248 293 224
249 261 286 280 269 246 249 245 245 254 280 300 286 292 284 312 316 306 308 306 316 332 316 308 307 284 268 296 271 244 235 232 271 226 217 233 227 212 216 226 232 242 232 228 232 223 213 220 263 237 242 252 273 308
263 269 263 263 257 236 230 221 273 308 311 301 304 296 292 290 300 314 309 327 321 307 320 319 295 277 271 278 298 275 262 256 284 225 224 228 237 235 232 230 242 233 214 220 246 247 242 251 245 228 246 244 265 276
280 291 278 262 261 260 265 285 286 282 274 273 268 264 271 287 315 353 350 359 342 336 351 336 322 299 329 328 339 20 358 295 200 186 221 232 241 236 208 221 233 240 222 236 271 281 282 269 240 240 225 277 293 278
212 213 239 282 286 291 298 272 256 245 268 255 263 284 269 235 132 291 50 37 25 34 320 308 334 349 270 340 63 60 142 167 115 224 213 187 211 203 221 242 243 231 234 252 279 269 270 245 237 240 260 269 270 282
198 213 225 267 268 265 301 276 311 327 330 24 331 351 29 353 5 72 52 58 54 40 32 49 27 201 155 160 187 176 172 168 156 134 131 127 126 120 86 36 353 225 228 291 295 273 268 284 299 252 245 275 296 271
Height
1539 1536 1532 1529 1526 1522 1517 1513 1509 1505 1501 1496 1492 1487 1484 1481 1478 1475 1474 1472 1472 1464 1447 1443 1444 1442 1437 1433 1432 1426 1420 1412 1409 1419 1426 1426 1421 1411 1414 1407 1410 1413 1422 1424 1421 1427 1438 1407 1410 1429 1430 1425 1426 1430
1536 1532 1530 1527 1524 1520 1515 1509 1505 1501 1496 1492 1488 1484 1480 1478 1475 1472 1469 1469 1466 1462 1446 1438 1433 1432 1433 1429 1436 1431 1429 1428 1418 1422 1422 1419 1415 1408 1408 1415 1387 1412 1400 1409 1415 1427 1411 1410 1416 1422 1425 1428 1430 1432
1532 1529 1524 1523 1520 1517 1512 1505 1500 1496 1492 1487 1484 1480 1477 1474 1471 1470 1465 1464 1460 1455 1438 1429 1417 1419 1423 1423 1429 1433 1426 1425 1425 1425 1423 1419 1417 1405 1413 1409 1402 1396 1389 1405 1407 1411 1409 1411 1416 1421 1425 1428 1429 1432
1528 1525 1522 1517 1514 1511 1507 1503 1496 1491 1487 1483 1479 1475 1472 1469 1467 1464 1461 1459 1459 1458 1448 1422 1419 1417 1416 1417 1419 1423 1426 1425 1427 1426 1424 1421 1420 1406 1412 1406 1407 1401 1397 1405 1410 1407 1406 1411 1413 1420 1425 1428 1431 1434
1524 1521 1517 1514 1509 1506 1503 1497 1492 1486 1482 1478 1473 1470 1467 1464 1461 1458 1455 1451 1451 1457 1448 1429 1416 1411 1412 1414 1417 1420 1422 1424 1426 1426 1424 1423 1414 1412 1408 1407 1412 1407 1413 1420 1421 1409 1411 1412 1415 1420 1423 1427 1431 1434
1518 1516 1514 1508 1505 1501 1498 1493 1488 1482 1477 1472 1468 1464 1461 1459 1457 1455 1452 1450 1450 1452 1452 1436 1417 1409 1409 1410 1414 1416 1418 1421 1423 1423 1421 1416 1413 1415 1419 1421 1410 1410 1411 1414 1416 1413 1414 1416 1418 1420 1423 1425 1427 1430
1515 1511 1509 1505 1500 1495 1492 1488 1483 1478 1472 1466 1462 1458 1455 1454 1452 1454 1452 1451 1452 1453 1451 1437 1419 1407 1407 1410 1413 1414 1415 1417 1420 1421 1418 1417 1413 1412 1413 1422 1411 1411 1413 1414 1415 1415 1416 1417 1419 1421 1423 1424 1424 1428
1509 1506 1503 1500 1495 1490 1486 1483 1478 1473 1466 1460 1454 1451 1450 1448 1448 1448 1447 1450 1451 1452 1450 1440 1419 1407 1406 1408 1409 1409 1411 1414 1415 1415 1412 1411 1411 1410 1415 1409 1410 1411 1411 1413 1415 1416 1417 1417 1418 1419 1420 1419 1422 1426
1506 1502 1500 1495 1492 1487 1482 1478 1474 1468 1461 1455 1450 1446 1445 1446 1447 1447 1447 1448 1449 1452 1445 1435 1423 1416 1405 1404 1404 1405 1406 1410 1406 1409 1407 1407 1409 1413 1406 1405 1406 1408 1411 1412 1413 1414 1415 1416 1417 1418 1420 1419 1421 1425
1501 1498 1495 1491 1486 1483 1478 1473 1469 1464 1459 1453 1449 1447 1445 1445 1445 1446 1446 1446 1447 1445 1442 1433 1423 1415 1410 1403 1401 1402 1400 1403 1405 1401 1400 1403 1404 1400 1399 1398 1403 1408 1410 1411 1412 1414 1415 1415 1415 1416 1417 1417 1422 1426
1493 1490 1489 1487 1482 1478 1474 1470 1466 1462 1457 1454 1450 1447 1447 1444 1443 1444 1441 1440 1438 1435 1430 1421 1416 1414 1410 1405 1403 1401 1401 1399 1403 1398 1400 1402 1406 1400 1400 1402 1406 1408 1410 1411 1412 1414 1414 1417 1417 1419 1420 1422 1426 1429
1488 1485 1482 1481 1478 1474 1471 1467 1463 1462 1459 1456 1453 1449 1446 1444 1442 1439 1432 1426 1424 1419 1413 1411 1408 1408 1408 1404 1405 1412 1412 1407 1406 1395 1395 1403 1404 1401 1402 1406 1409 1411 1411 1412 1413 1414 1416 1418 1420 1420 1421 1422 1426 1428
1486 1483 1478 1475 1473 1470 1467 1464 1462 1459 1456 1452 1451 1448 1447 1444 1442 1434 1423 1417 1416 1413 1410 1408 1405 1404 1404 1404 1405 1411 1417 1413 1402 1405 1401 1406 1403 1404 1405 1407 1410 1413 1413 1415 1418 1419 1420 1422 1422 1423 1424 1425 1425 1426
1479 1478 1475 1471 1468 1466 1463 1462 1459 1456 1454 1453 1449 1447 1443 1437 1432 1425 1425 1422 1420 1415 1412 1409 1406 1406 1403 1403 1403 1404 1405 1404 1412 1406 1401 1405 1406 1407 1409 1410 1411 1413 1415 1417 1420 1422 1422 1423 1424 1425 1424 1425 1427 1428
1474 1472 1471 1467 1464 1462 1460 1458 1456 1454 1455 1451 1448 1440 1431 1429 1428 1425 1423 1421 1419 1416 1414 1409 1409 1410 1407 1404 1402 1403 1406 1404 1396 1402 1404 1406 1408 1410 1411 1413 1415 1417 1418 1420 1421 1422 1423 1423 1423 1424 1424 1425 1426 1426
1470 1467 1466 1463 1460 1459 1457 1454 1452 1453 1452 1449 1443 1435 1428 1427 1426 1425 1424 1422 1419 1416 1413 1411 1413 1416 1418 1406 1402 1402 1400 1404 1408 1405 1405 1408 1411 1412 1414 1416 1418 1419 1420 1421 1422 1422 1423 1422 1423 1423 1422 1422 1422 1422
1466 1463 1461 1459 1457 1455 1454 1452 1452 1450 1447 1442 1435 1431 1430 1428 1426 1425 1424 1422 1420 1418 1416 1414 1417 1417 1410 1404 1399 1403 1411 1413 1410 1410 1411 1410 1412 1415 1417 1418 1420 1421 1422 1422 1422 1422 1423 1423 1423 1422 1421 1420 1419 1418
1461 1459 1458 1456 1453 1450 1449 1449 1448 1444 1439 1435 1432 1428 1427 1426 1426 1424 1424 1423 1423 1421 1419 1419 1419 1419 1415 1409 1411 1413 1412 1411 1411 1413 1412 1413 1415 1417 1419 1420 1421 1421 1422 1423 1423 1422 1423 1423 1423 1421 1420 1419 1418 1418
1457 1456 1454 1452 1451 1450 1448 1446 1446 1440 1432 1428 1426 1425 1424 1424 1423 1423 1422 1422 1422 1421 1420 1417 1416 1417 1416 1415 1413 1412 1411 1411 1413 1414 1415 1416 1417 1418 1419 1420 1421 1422 1422 1423 1423 1423 1423 1423 1422 1421 1420 1420 1419 1419
1453 1452 1451 1449 1449 1449 1446 1443 1442 1438 1430 1426 1424 1422 1420 1420 1419 1419 1419 1419 1419 1418 1418 1415 1412 1411 1413 1417 1414 1412 1412 1413 1414 1415 1415 1417 1418 1419 1419 1420 1421 1421 1421 1423 1423 1423 1423 1423 1422 1421 1421 1421 1421 1421
1450 1450 1449 1448 1448 1447 1446 1441 1437 1434 1429 1426 1421 1420 1417 1415 1415 1414 1414 1415 1415 1414 1412 1411 1411 1408 1412 1413 1412 1412 1412 1412 1413 1413 1413 1415 1416 1417 1417 1417 1418 1418 1420 1421 1421 1422 1423 1422 1421 1422 1422 1422 1422 1422
1449 1448 1447 1446 1446 1444 1442 1439 1437 1433 1431 1424 1420 1416 1414 1411 1409 1408 1409 1409 1409 1408 1408 1408 1408 1409 1408 1408 1408 1409 1409 1410 1411 1411 1412 1413 1413 1414 1414 1414 1415 1415 1417 1417 1419 1419 1421 1422 1422 1422 1423 1424 1424 1424
1447 1447 1446 1445 1445 1443 1439 1436 1436 1429 1425 1420 1415 1412 1409 1407 1406 1405 1405 1402 1401 1401 1402 1403 1404 1404 1405 1405 1405 1405 1406 1407 1408 1408 1409 1410 1410 1411 1411 1411 1412 1413 1414 1416 1416 1418 1418 1420 1420 1422 1422 1423 1423 1424
1446 1446 1444 1443 1442 1440 1436 1432 1429 1425 1421 1418 1415 1409 1406 1405 1404 1403 1401 1398 1399 1400 1400 1401 1402 1402 1402 1401 1401 1401 1401 1402 1403 1403 1404 1405 1406 1407 1408 1408 1409 1410 1411 1413 1414 1415 1417 1419 1420 1420 1421 1421 1421 1422
1447 1444 1444 1441 1438 1436 1430 1426 1424 1422 1416 1414 1412 1409 1407 1406 1403 1400 1397 1399 1400 1401 1401 1402 1402 1401 1400 1399 1398 1398 1398 1397 1397 1398 1399 1401 1402 1404 1405 1405 1406 1408 1410 1411 1413 1414 1416 1416 1418 1419 1419 1419 1420 1421
1444 1439 1439 1431 1430 1430 1427 1424 1421 1420 1417 1414 1410 1408 1408 1406 1402 1400 1401 1402 1402 1402 1401 1401 1399 1398 1397 1397 1397 1396 1395 1394 1394 1394 1394 1396 1398 1400 1403 1405 1407 1404 1408 1410 1411 1412 1412 1414 1414 1415 1416 1416 1417 1418
1440 1433 1431 1430 1429 1429 1427 1423 1420 1418 1416 1414 1411 1410 1407 1406 1403 1401 1401 1400 1399 1397 1394 1394 1393 1392 1392 1392 1392 1391 1391 1392 1392 1392 1393 1394 1395 1397 1399 1401 1403 1405 1406 1407 1408 1407 1408 1410 1411 1412 1413 1414 1415 1416
1435 1431 1429 1429 1428 1428 1427 1425 1421 1417 1413 1411 1411 1408 1406 1403 1402 1399 1397 1394 1392 1391 1390 1388 1387 1386 1387 1386 1386 1387 1388 1389 1389 1389 1389 1391 1393 1394 1396 1398 1399 1400 1403 1404 1404 1405 1406 1408 1410 1410 1410 1411 1412 1413
1431 1429 1429 1427 1426 1425 1424 1422 1420 1416 1414 1413 1412 1411 1406 1402 1400 1396 1394 1390 1388 1386 1385 1383 1383 1383 1382 1383 1382 1382 1383 1384 1385 1385 1386 1388 1390 1392 1394 1396 1397 1398 1400 1401 1401 1402 1404 1407 1406 1406 1408 1408 1408 1408
1428 1427 1427 1424 1423 1420 1417 1417 1414 1413 1412 1412 1411 1408 1404 1400 1399 1396 1391 1388 1386 1385 1384 1383 1382 1383 1383 1383 1381 1381 1381 1378 1380 1381 1383 1385 1386 1387 1390 1391 1393 1394 1397 1399 1398 1398 1400 1401 1402 1403 1404 1405 1406 1406
1427 1426 1426 1423 1420 1416 1414 1413 1412 1411 1409 1408 1406 1403 1399 1397 1397 1395 1393 1390 1386 1385 1384 1383 1384 1384 1384 1383 1383 1381 1380 1378 1377 1379 1382 1383 1386 1387 1388 1389 1390 1391 1393 1395 1395 1396 1396 1393 1397 1400 1400 1401 1402 1401
1425 1425 1425 1422 1416 1411 1411 1408 1407 1405 1402 1400 1399 1397 1396 1396 1395 1393 1393 1389 1385 1385 1385 1384 1383 1382 1382 1385 1383 1381 1376 1376 1376 1376 1380 1380 1380 1384 1387 1388 1389 1390 1391 1392 1391 1391 1392 1390 1391 1391 1392 1392 1394 1393
1422 1422 1422 1421 1416 1410 1408 1407 1404 1403 1400 1400 1399 1398 1396 1395 1395 1395 1394 1392 1391 1391 1389 1387 1385 1380 1380 1382 1380 1379 1382 1382 1382 1383 1382 1381 1384 1387 1386 1385 1385 1386 1388 1390 1388 1386 1385 1386 1386 1386 1387 1388 1386 1387